| time (UTC) | temp F | wind direction | speed MPH | gust MPH | rain 1hr in | rain 24hr in | rain mn in | humidity % | barometer mb |
| 20260902051511 | 53 | 340 | 0.0 | 1.0 | 0.00 | 0.00 | 0.00 | 91 | 1018.7 |
| 20260902051010 | 53 | 340 | 0.0 | 1.0 | 0.00 | 0.00 | 0.00 | 90 | 1018.8 |
| 20260902050511 | 53 | 340 | 0.0 | 1.0 | 0.00 | 0.00 | 0.00 | 90 | 1018.8 |
| 20260902050013 | 53 | 340 | 0.0 | 1.0 | 0.00 | 0.00 | 0.00 | 90 | 1018.7 |
| 20260902045508 | 53 | 340 | 0.0 | 5.0 | 0.00 | 0.00 | 0.00 | 91 | 1018.7 |
| 20260902045010 | 53 | 340 | 0.0 | 5.0 | 0.00 | 0.00 | 0.00 | 91 | 1018.8 |
| 20260902044507 | 53 | 284 | 1.0 | 7.0 | 0.00 | 0.00 | 0.00 | 91 | 1018.8 |
| 20260902044009 | 53 | 284 | 2.0 | 7.0 | 0.00 | 0.00 | 0.00 | 91 | 1018.8 |
| 20260902043508 | 52 | 285 | 2.0 | 5.0 | 0.00 | 0.00 | 0.00 | 92 | 1018.9 |
| 20260902043007 | 52 | 264 | 0.0 | 0.0 | 0.00 | 0.00 | 0.00 | 91 | 1018.8 |
| 20260902042507 | 52 | 264 | 0.0 | 0.0 | 0.00 | 0.00 | 0.00 | 91 | 1018.7 |
| 20260902042007 | 52 | 264 | 0.0 | 1.0 | 0.00 | 0.00 | 0.00 | 91 | 1018.7 |
| 20260902041507 | 52 | 264 | 0.0 | 2.0 | 0.00 | 0.00 | 0.00 | 91 | 1018.6 |
| 20260902041007 | 52 | 264 | 0.0 | 0.0 | 0.00 | 0.00 | 0.00 | 91 | 1018.6 |
| 20260902040507 | 52 | 264 | 0.0 | 1.0 | 0.00 | 0.00 | 0.00 | 91 | 1018.6 |
| 20260902040006 | 52 | 264 | 0.0 | 1.0 | 0.00 | 0.00 | 0.00 | 91 | 1018.7 |
| 20260902035506 | 52 | 264 | 0.0 | 0.0 | 0.00 | 0.00 | 0.00 | 91 | 1018.7 |
| 20260902035006 | 52 | 264 | 0.0 | 1.0 | 0.00 | 0.00 | 0.00 | 90 | 1018.7 |
| 20260902034506 | 52 | 264 | 0.0 | 2.0 | 0.00 | 0.00 | 0.00 | 90 | 1018.8 |
| 20260902034006 | 52 | 264 | 0.0 | 2.0 | 0.00 | 0.00 | 0.00 | 90 | 1018.8 |
| 20260902033507 | 52 | 264 | 0.0 | 4.0 | 0.00 | 0.00 | 0.00 | 90 | 1018.8 |
| 20260902033010 | 52 | 270 | 0.0 | 5.0 | 0.00 | 0.00 | 0.00 | 91 | 1018.8 |
| 20260902032509 | 52 | 11 | 0.0 | 5.0 | 0.00 | 0.00 | 0.00 | 91 | 1018.7 |
| 20260902032004 | 52 | 267 | 0.0 | 0.0 | 0.00 | 0.00 | 0.00 | 91 | 1018.7 |
| 20260902031504 | 52 | 267 | 0.0 | 0.0 | 0.00 | 0.00 | 0.00 | 90 | 1018.6 |
| 20260902031004 | 52 | 253 | 0.0 | 0.0 | 0.00 | 0.00 | 0.00 | 90 | 1018.6 |
| 20260902030504 | 52 | 253 | 0.0 | 0.0 | 0.00 | 0.00 | 0.00 | 90 | 1018.6 |
| 20260902030004 | 52 | 253 | 0.0 | 2.0 | 0.00 | 0.00 | 0.00 | 90 | 1018.6 |
| 20260902025504 | 52 | 253 | 0.0 | 2.0 | 0.00 | 0.00 | 0.00 | 90 | 1018.6 |
| 20260902025004 | 52 | 257 | 0.0 | 0.0 | 0.00 | 0.00 | 0.00 | 89 | 1018.6 |
| 20260902024503 | 52 | 257 | 0.0 | 0.0 | 0.00 | 0.00 | 0.00 | 89 | 1018.6 |
| 20260902024001 | 52 | 257 | 0.0 | 0.0 | 0.00 | 0.00 | 0.00 | 89 | 1018.6 |
| 20260902023600 | 52 | 257 | 0.0 | 0.0 | 0.00 | 0.00 | 0.00 | 89 | 1018.5 |
| 20260902023502 | 52 | 257 | 0.0 | 0.0 | 0.00 | 0.00 | 0.00 | 89 | 1018.6 |
| 20260902023103 | 53 | 257 | 0.0 | 0.0 | 0.00 | 0.00 | 0.00 | 89 | 1018.6 |
| 20260902022559 | 53 | 257 | 0.0 | 0.0 | 0.00 | 0.00 | 0.00 | 89 | 1018.6 |
| 20260902022058 | 53 | 257 | 0.0 | 0.0 | 0.00 | 0.00 | 0.00 | 89 | 1018.6 |
| 20260902021608 | 54 | 257 | 0.0 | 4.0 | 0.00 | 0.00 | 0.00 | 89 | 1018.5 |
| 20260902021059 | 54 | 257 | 1.0 | 4.0 | 0.00 | 0.00 | 0.00 | 89 | 1018.5 |
| 20260902020559 | 54 | 289 | 0.0 | 3.0 | 0.00 | 0.00 | 0.00 | 89 | 1018.4 |
| 20260902020104 | 54 | 289 | 1.0 | 4.0 | 0.00 | 0.00 | 0.00 | 88 | 1018.4 |
| 20260902015601 | 54 | 286 | 1.0 | 4.0 | 0.00 | 0.00 | 0.00 | 88 | 1018.5 |
| 20260902015058 | 54 | 255 | 0.0 | 4.0 | 0.00 | 0.00 | 0.00 | 88 | 1018.4 |
| 20260902014600 | 54 | 10 | 0.0 | 2.0 | 0.00 | 0.00 | 0.00 | 85 | 1018.6 |
| 20260902013558 | 54 | 281 | 0.0 | 2.0 | 0.00 | 0.00 | 0.00 | 84 | 1018.4 |
| 20260902013058 | 54 | 329 | 0.0 | 0.0 | 0.00 | 0.00 | 0.00 | 83 | 1018.4 |
| 20260902012559 | 54 | 329 | 0.0 | 2.0 | 0.00 | 0.00 | 0.00 | 82 | 1018.3 |
| 20260902012058 | 54 | 329 | 0.0 | 1.0 | 0.00 | 0.00 | 0.00 | 82 | 1018.3 |
| 20260902011557 | 55 | 329 | 0.0 | 1.0 | 0.00 | 0.00 | 0.00 | 81 | 1018.3 |
| 20260902011058 | 55 | 335 | 0.0 | 6.0 | 0.00 | 0.00 | 0.00 | 81 | 1018.3 |
| 20260902010557 | 55 | 326 | 1.0 | 6.0 | 0.00 | 0.00 | 0.00 | 81 | 1018.3 |
| 20260902010057 | 55 | 345 | 0.0 | 2.0 | 0.00 | 0.00 | 0.00 | 81 | 1018.3 |
| 20260902005600 | 56 | 345 | 0.0 | 5.0 | 0.00 | 0.00 | 0.00 | 81 | 1018.4 |
| 20260902005057 | 56 | 352 | 1.0 | 5.0 | 0.00 | 0.00 | 0.00 | 82 | 1018.4 |
| 20260902004558 | 56 | 22 | 0.0 | 4.0 | 0.00 | 0.00 | 0.00 | 83 | 1018.4 |
| 20260902003556 | 56 | 290 | 3.0 | 6.0 | 0.00 | 0.00 | 0.00 | 83 | 1018.5 |
| 20260902003056 | 56 | 11 | 0.0 | 5.0 | 0.00 | 0.00 | 0.00 | 83 | 1018.5 |
| 20260902002557 | 56 | 32 | 1.0 | 5.0 | 0.00 | 0.00 | 0.00 | 83 | 1018.4 |
| 20260902002056 | 56 | 37 | 1.0 | 5.0 | 0.00 | 0.00 | 0.00 | 83 | 1018.4 |
| 20260902001556 | 56 | 51 | 1.0 | 5.0 | 0.00 | 0.00 | 0.00 | 82 | 1018.4 |
| 20260902001059 | 56 | 47 | 2.0 | 5.0 | 0.00 | 0.00 | 0.00 | 82 | 1018.4 |
| 20260902000555 | 56 | 56 | 0.0 | 8.0 | 0.00 | 0.00 | 0.00 | 82 | 1018.4 |
| 20260902000056 | 56 | 29 | 1.0 | 8.0 | 0.00 | 0.00 | 0.00 | 82 | 1018.3 |
| 20260901235558 | 56 | 101 | 0.0 | 6.0 | 0.00 | 0.00 | 0.00 | 82 | 1018.2 |
| 20260901235054 | 57 | 75 | 1.0 | 6.0 | 0.00 | 0.00 | 0.00 | 83 | 1018.2 |
| 20260901234605 | 57 | 2 | 1.0 | 7.0 | 0.00 | 0.00 | 0.00 | 83 | 1018.2 |
| 20260901233554 | 57 | 46 | 1.0 | 5.0 | 0.00 | 0.00 | 0.00 | 81 | 1018.1 |
| 20260901233053 | 57 | 75 | 1.0 | 13.0 | 0.00 | 0.00 | 0.00 | 81 | 1018.1 |
| 20260901232556 | 57 | 34 | 0.0 | 13.0 | 0.00 | 0.00 | 0.00 | 81 | 1018.0 |
| 20260901232053 | 57 | 26 | 4.0 | 9.0 | 0.00 | 0.00 | 0.00 | 81 | 1018.0 |
| 20260901231552 | 57 | 3 | 0.0 | 6.0 | 0.00 | 0.00 | 0.00 | 83 | 1017.9 |
| 20260901231051 | 57 | 50 | 2.0 | 6.0 | 0.00 | 0.00 | 0.00 | 83 | 1017.9 |
| 20260901230550 | 57 | 12 | 2.0 | 6.0 | 0.00 | 0.00 | 0.00 | 83 | 1017.8 |
| 20260901230050 | 57 | 78 | 1.0 | 7.0 | 0.00 | 0.00 | 0.00 | 83 | 1017.6 |
| 20260901225548 | 57 | 8 | 3.0 | 7.0 | 0.00 | 0.00 | 0.00 | 83 | 1017.6 |
| 20260901225048 | 57 | 64 | 1.0 | 7.0 | 0.00 | 0.00 | 0.00 | 83 | 1017.5 |
| 20260901224548 | 57 | 2 | 3.0 | 7.0 | 0.00 | 0.00 | 0.00 | 83 | 1017.4 |
| 20260901223548 | 57 | 353 | 1.0 | 8.0 | 0.00 | 0.00 | 0.00 | 83 | 1017.3 |
| 20260901223047 | 57 | 10 | 3.0 | 7.0 | 0.00 | 0.00 | 0.00 | 83 | 1017.2 |
| 20260901222546 | 57 | 297 | 3.0 | 8.0 | 0.00 | 0.00 | 0.00 | 82 | 1017.1 |
| 20260901222045 | 57 | 54 | 2.0 | 8.0 | 0.00 | 0.00 | 0.00 | 82 | 1017.1 |
| 20260901221614 | 57 | 59 | 4.0 | 7.0 | 0.00 | 0.00 | 0.00 | 82 | 1017.0 |
| 20260901221045 | 57 | 45 | 2.0 | 9.0 | 0.00 | 0.00 | 0.00 | 83 | 1017.0 |
| 20260901220545 | 57 | 12 | 4.0 | 9.0 | 0.00 | 0.00 | 0.00 | 84 | 1017.0 |
| 20260901220044 | 57 | 335 | 2.0 | 8.0 | 0.00 | 0.00 | 0.00 | 84 | 1016.9 |
| 20260901215544 | 57 | 40 | 3.0 | 8.0 | 0.00 | 0.00 | 0.00 | 84 | 1016.8 |
| 20260901215048 | 57 | 37 | 3.0 | 8.0 | 0.00 | 0.00 | 0.00 | 84 | 1016.9 |
| 20260901214543 | 57 | 5 | 3.0 | 8.0 | 0.00 | 0.00 | 0.00 | 83 | 1016.8 |
| 20260901213544 | 57 | 20 | 2.0 | 10.0 | 0.00 | 0.00 | 0.00 | 83 | 1016.7 |
| 20260901213100 | 57 | 39 | 2.0 | 10.0 | 0.00 | 0.00 | 0.00 | 83 | 1016.7 |
| 20260901212542 | 57 | 38 | 0.0 | 6.0 | 0.00 | 0.00 | 0.00 | 83 | 1016.6 |
| 20260901212042 | 57 | 64 | 3.0 | 6.0 | 0.00 | 0.00 | 0.00 | 83 | 1016.6 |
| 20260901211545 | 57 | 43 | 1.0 | 9.0 | 0.00 | 0.00 | 0.00 | 84 | 1016.6 |
| 20260901211041 | 57 | 35 | 3.0 | 13.0 | 0.00 | 0.00 | 0.00 | 84 | 1016.6 |
| 20260901210541 | 57 | 32 | 4.0 | 12.0 | 0.00 | 0.00 | 0.00 | 84 | 1016.6 |
| 20260901210041 | 57 | 312 | 4.0 | 9.0 | 0.00 | 0.00 | 0.00 | 83 | 1016.5 |
| 20260901205542 | 57 | 31 | 2.0 | 12.0 | 0.00 | 0.00 | 0.00 | 84 | 1016.4 |
| 20260901205039 | 57 | 13 | 4.0 | 12.0 | 0.00 | 0.00 | 0.00 | 84 | 1016.4 |
| 20260901204538 | 57 | 28 | 4.0 | 9.0 | 0.00 | 0.00 | 0.00 | 84 | 1016.3 |
| 20260901203539 | 57 | 11 | 4.0 | 9.0 | 0.00 | 0.00 | 0.00 | 86 | 1016.3 |
| 20260901203044 | 57 | 24 | 1.0 | 6.0 | 0.00 | 0.00 | 0.00 | 87 | 1016.3 |
| 20260901202538 | 57 | 36 | 0.0 | 7.0 | 0.00 | 0.00 | 0.00 | 86 | 1016.2 |
| 20260901202038 | 57 | 16 | 4.0 | 12.0 | 0.00 | 0.00 | 0.00 | 85 | 1016.2 |
| 20260901201537 | 58 | 26 | 6.0 | 12.0 | 0.00 | 0.00 | 0.00 | 84 | 1016.3 |
| 20260901201037 | 58 | 40 | 4.0 | 12.0 | 0.00 | 0.00 | 0.00 | 83 | 1016.2 |
| 20260901200536 | 58 | 35 | 4.0 | 15.0 | 0.00 | 0.00 | 0.00 | 82 | 1016.2 |
| 20260901200049 | 59 | 323 | 6.0 | 15.0 | 0.00 | 0.00 | 0.00 | 82 | 1016.1 |
| 20260901195539 | 59 | 43 | 5.0 | 9.0 | 0.00 | 0.00 | 0.00 | 82 | 1016.0 |
| 20260901195038 | 59 | 1 | 3.0 | 11.0 | 0.00 | 0.00 | 0.00 | 80 | 1016.0 |
| 20260901194534 | 59 | 331 | 4.0 | 12.0 | 0.00 | 0.00 | 0.00 | 79 | 1015.8 |
| 20260901193533 | 59 | 64 | 2.0 | 11.0 | 0.00 | 0.00 | 0.00 | 80 | 1015.8 |
| 20260901193042 | 59 | 51 | 5.0 | 11.0 | 0.00 | 0.00 | 0.00 | 80 | 1015.7 |
| 20260901192536 | 59 | 335 | 3.0 | 8.0 | 0.00 | 0.00 | 0.00 | 81 | 1015.6 |
| 20260901192035 | 59 | 20 | 2.0 | 8.0 | 0.00 | 0.00 | 0.00 | 81 | 1015.6 |
| 20260901191533 | 59 | 10 | 2.0 | 11.0 | 0.00 | 0.00 | 0.00 | 82 | 1015.5 |
| 20260901191031 | 59 | 72 | 2.0 | 11.0 | 0.00 | 0.00 | 0.00 | 82 | 1015.5 |
| 20260901190533 | 59 | 281 | 3.0 | 11.0 | 0.00 | 0.00 | 0.00 | 83 | 1015.6 |
| 20260901190030 | 59 | 54 | 4.0 | 10.0 | 0.00 | 0.00 | 0.00 | 83 | 1015.5 |
| 20260901185530 | 58 | 349 | 2.0 | 13.0 | 0.00 | 0.00 | 0.00 | 84 | 1015.4 |
| 20260901185033 | 58 | 328 | 6.0 | 13.0 | 0.00 | 0.00 | 0.00 | 84 | 1015.4 |
| 20260901184533 | 59 | 33 | 5.0 | 13.0 | 0.00 | 0.00 | 0.00 | 84 | 1015.4 |
| 20260901183530 | 59 | 353 | 4.0 | 12.0 | 0.00 | 0.00 | 0.00 | 84 | 1015.2 |
| 20260901183028 | 59 | 17 | 5.0 | 12.0 | 0.00 | 0.00 | 0.00 | 84 | 1015.2 |
| 20260901182528 | 59 | 340 | 6.0 | 12.0 | 0.00 | 0.00 | 0.00 | 83 | 1015.1 |
| 20260901182027 | 60 | 18 | 4.0 | 10.0 | 0.00 | 0.00 | 0.00 | 83 | 1015.0 |
| 20260901181526 | 60 | 319 | 5.0 | 11.0 | 0.00 | 0.00 | 0.00 | 83 | 1015.0 |
| 20260901181026 | 60 | 33 | 4.0 | 11.0 | 0.00 | 0.00 | 0.00 | 83 | 1014.9 |
| 20260901180525 | 60 | 20 | 4.0 | 10.0 | 0.00 | 0.00 | 0.00 | 83 | 1014.9 |
| 20260901180026 | 60 | 6 | 5.0 | 10.0 | 0.00 | 0.00 | 0.00 | 81 | 1014.8 |
| 20260901175524 | 60 | 295 | 4.0 | 9.0 | 0.00 | 0.00 | 0.00 | 82 | 1014.7 |
| 20260901175025 | 59 | 284 | 3.0 | 12.0 | 0.00 | 0.00 | 0.00 | 83 | 1014.6 |
| 20260901174524 | 59 | 340 | 5.0 | 12.0 | 0.00 | 0.00 | 0.00 | 83 | 1014.7 |
| 20260901173527 | 58 | 1 | 1.0 | 11.0 | 0.00 | 0.00 | 0.00 | 87 | 1014.6 |
| 20260901173025 | 58 | 5 | 5.0 | 11.0 | 0.00 | 0.00 | 0.00 | 87 | 1014.6 |
| 20260901172525 | 58 | 29 | 0.0 | 7.0 | 0.00 | 0.00 | 0.00 | 88 | 1014.5 |
| 20260901172026 | 57 | 340 | 0.0 | 6.0 | 0.00 | 0.00 | 0.00 | 88 | 1014.6 |
| 20260901171528 | 57 | 46 | 2.0 | 7.0 | 0.00 | 0.00 | 0.00 | 87 | 1014.6 |
| 20260901171024 | 58 | 10 | 2.0 | 7.0 | 0.00 | 0.00 | 0.00 | 87 | 1014.6 |
| 20260901170524 | 58 | 47 | 1.0 | 11.0 | 0.00 | 0.00 | 0.00 | 86 | 1014.5 |
| 20260901170024 | 59 | 328 | 4.0 | 12.0 | 0.00 | 0.00 | 0.00 | 84 | 1014.5 |
| 20260901165524 | 61 | 39 | 6.0 | 13.0 | 0.00 | 0.00 | 0.00 | 81 | 1014.5 |
| 20260901165023 | 61 | 3 | 8.0 | 13.0 | 0.00 | 0.00 | 0.00 | 80 | 1014.4 |
| 20260901164523 | 61 | 229 | 2.0 | 10.0 | 0.00 | 0.00 | 0.00 | 80 | 1014.4 |
| 20260901163521 | 61 | 340 | 2.0 | 10.0 | 0.00 | 0.00 | 0.00 | 79 | 1014.3 |
| 20260901163021 | 61 | 286 | 4.0 | 11.0 | 0.00 | 0.00 | 0.00 | 79 | 1014.3 |
| 20260901162521 | 60 | 180 | 3.0 | 11.0 | 0.00 | 0.00 | 0.00 | 81 | 1014.3 |
| 20260901162021 | 60 | 133 | 2.0 | 12.0 | 0.00 | 0.00 | 0.00 | 79 | 1014.2 |
| 20260901161519 | 61 | 71 | 5.0 | 14.0 | 0.00 | 0.00 | 0.00 | 78 | 1014.2 |
| 20260901161019 | 62 | 49 | 5.0 | 13.0 | 0.00 | 0.00 | 0.00 | 78 | 1014.2 |
| 20260901160518 | 62 | 20 | 3.0 | 10.0 | 0.00 | 0.00 | 0.00 | 78 | 1014.1 |
| 20260901160022 | 62 | 27 | 3.0 | 10.0 | 0.00 | 0.00 | 0.00 | 78 | 1014.1 |
| 20260901155518 | 62 | 85 | 3.0 | 12.0 | 0.00 | 0.00 | 0.00 | 76 | 1014.1 |
| 20260901155018 | 63 | 243 | 4.0 | 12.0 | 0.00 | 0.00 | 0.00 | 74 | 1014.0 |
| 20260901154518 | 63 | 72 | 5.0 | 14.0 | 0.00 | 0.00 | 0.00 | 74 | 1013.9 |
| 20260901153518 | 62 | 287 | 5.0 | 14.0 | 0.00 | 0.00 | 0.00 | 77 | 1013.9 |
| 20260901153020 | 62 | 246 | 7.0 | 14.0 | 0.00 | 0.00 | 0.00 | 77 | 1013.9 |
| 20260901152513 | 61 | 81 | 3.0 | 12.0 | 0.00 | 0.00 | 0.00 | 79 | 1013.9 |
| 20260901152012 | 60 | 37 | 5.0 | 13.0 | 0.00 | 0.00 | 0.00 | 81 | 1013.8 |
| 20260901151516 | 60 | 22 | 5.0 | 13.0 | 0.00 | 0.00 | 0.00 | 80 | 1013.8 |
| 20260901151013 | 60 | 314 | 5.0 | 9.0 | 0.00 | 0.00 | 0.00 | 81 | 1013.8 |
| 20260901150512 | 60 | 6 | 4.0 | 10.0 | 0.00 | 0.00 | 0.00 | 83 | 1013.9 |
| 20260901150011 | 60 | 49 | 4.0 | 10.0 | 0.00 | 0.00 | 0.00 | 85 | 1013.7 |
| 20260901145510 | 60 | 357 | 1.0 | 9.0 | 0.00 | 0.00 | 0.00 | 86 | 1013.6 |
| 20260901145010 | 59 | 345 | 4.0 | 9.0 | 0.00 | 0.00 | 0.00 | 86 | 1013.6 |
| 20260901144510 | 59 | 17 | 2.0 | 9.0 | 0.00 | 0.00 | 0.00 | 86 | 1013.6 |
| 20260901143510 | 60 | 297 | 4.0 | 9.0 | 0.00 | 0.00 | 0.00 | 84 | 1013.7 |
| 20260901143009 | 60 | 276 | 2.0 | 13.0 | 0.00 | 0.00 | 0.00 | 83 | 1013.6 |
| 20260901142509 | 60 | 232 | 7.0 | 11.0 | 0.00 | 0.00 | 0.00 | 83 | 1013.5 |
| 20260901142013 | 59 | 276 | 4.0 | 10.0 | 0.00 | 0.00 | 0.00 | 84 | 1013.5 |
| 20260901141508 | 59 | 33 | 5.0 | 12.0 | 0.00 | 0.00 | 0.00 | 85 | 1013.4 |
| 20260901141012 | 59 | 335 | 3.0 | 12.0 | 0.00 | 0.00 | 0.00 | 84 | 1013.4 |
| 20260901140507 | 59 | 316 | 5.0 | 10.0 | 0.00 | 0.00 | 0.00 | 84 | 1013.5 |
| 20260901140013 | 60 | 307 | 4.0 | 16.0 | 0.00 | 0.00 | 0.00 | 83 | 1013.4 |
| 20260901135508 | 60 | 230 | 8.0 | 16.0 | 0.00 | 0.00 | 0.00 | 82 | 1013.4 |
| 20260901135006 | 59 | 288 | 3.0 | 14.0 | 0.00 | 0.00 | 0.00 | 85 | 1013.3 |
| 20260901134507 | 58 | 222 | 2.0 | 14.0 | 0.00 | 0.00 | 0.00 | 85 | 1013.3 |
| 20260901133506 | 59 | 322 | 4.0 | 10.0 | 0.00 | 0.00 | 0.00 | 83 | 1013.3 |
| 20260901133004 | 59 | 203 | 3.0 | 10.0 | 0.00 | 0.00 | 0.00 | 82 | 1013.2 |
| 20260901132504 | 59 | 335 | 1.0 | 9.0 | 0.00 | 0.00 | 0.00 | 83 | 1013.0 |
| 20260901132005 | 59 | 241 | 5.0 | 10.0 | 0.00 | 0.00 | 0.00 | 84 | 1012.9 |
| 20260901131515 | 58 | 281 | 1.0 | 10.0 | 0.00 | 0.00 | 0.00 | 86 | 1013.0 |
| 20260901131005 | 57 | 235 | 2.0 | 10.0 | 0.00 | 0.00 | 0.00 | 88 | 1013.0 |
| 20260901130503 | 57 | 271 | 3.0 | 10.0 | 0.00 | 0.00 | 0.00 | 88 | 1012.9 |
| 20260901130002 | 56 | 224 | 3.0 | 13.0 | 0.00 | 0.00 | 0.00 | 88 | 1012.9 |
| 20260901125501 | 56 | 261 | 5.0 | 13.0 | 0.00 | 0.00 | 0.00 | 86 | 1012.9 |
| 20260901125002 | 57 | 289 | 6.0 | 12.0 | 0.00 | 0.00 | 0.00 | 84 | 1012.9 |
| 20260901124601 | 58 | 310 | 6.0 | 12.0 | 0.00 | 0.00 | 0.00 | 82 | 1012.7 |
| 20260901123600 | 58 | 345 | 3.0 | 11.0 | 0.00 | 0.00 | 0.00 | 81 | 1012.4 |
| 20260901123105 | 59 | 218 | 5.0 | 13.0 | 0.00 | 0.00 | 0.00 | 80 | 1012.4 |
| 20260901122559 | 59 | 227 | 6.0 | 13.0 | 0.00 | 0.00 | 0.00 | 80 | 1012.4 |
| 20260901122058 | 59 | 264 | 4.0 | 10.0 | 0.00 | 0.00 | 0.00 | 80 | 1012.3 |
| 20260901121557 | 58 | 278 | 2.0 | 10.0 | 0.00 | 0.00 | 0.00 | 80 | 1012.3 |
| 20260901121056 | 58 | 244 | 4.0 | 10.0 | 0.00 | 0.00 | 0.00 | 81 | 1012.2 |
| 20260901120556 | 58 | 259 | 3.0 | 11.0 | 0.00 | 0.00 | 0.00 | 81 | 1012.2 |
| 20260901120054 | 58 | 266 | 6.0 | 11.0 | 0.00 | 0.00 | 0.00 | 80 | 1012.0 |
| 20260901115554 | 58 | 273 | 5.0 | 10.0 | 0.00 | 0.00 | 0.00 | 79 | 1011.9 |
| 20260901115054 | 59 | 288 | 4.0 | 10.0 | 0.00 | 0.00 | 0.00 | 79 | 1011.8 |
| 20260901114553 | 59 | 299 | 4.0 | 11.0 | 0.00 | 0.00 | 0.00 | 80 | 1011.9 |
| 20260901113552 | 58 | 245 | 3.0 | 9.0 | 0.00 | 0.00 | 0.00 | 81 | 1011.8 |
| 20260901113053 | 58 | 256 | 4.0 | 10.0 | 0.00 | 0.00 | 0.00 | 81 | 1011.8 |
| 20260901112553 | 57 | 275 | 3.0 | 10.0 | 0.00 | 0.00 | 0.00 | 81 | 1011.7 |
| 20260901112050 | 57 | 303 | 4.0 | 12.0 | 0.00 | 0.00 | 0.00 | 81 | 1011.7 |
| 20260901111552 | 57 | 248 | 6.0 | 13.0 | 0.00 | 0.00 | 0.00 | 82 | 1011.6 |
| 20260901111051 | 57 | 274 | 6.0 | 13.0 | 0.00 | 0.00 | 0.00 | 82 | 1011.6 |
| 20260901110549 | 56 | 255 | 4.0 | 10.0 | 0.00 | 0.00 | 0.00 | 83 | 1011.6 |
| 20260901110056 | 56 | 237 | 3.0 | 10.0 | 0.00 | 0.00 | 0.00 | 84 | 1011.5 |
| 20260901105549 | 56 | 244 | 4.0 | 10.0 | 0.00 | 0.00 | 0.00 | 84 | 1011.5 |
| 20260901105053 | 56 | 282 | 4.0 | 10.0 | 0.00 | 0.00 | 0.00 | 84 | 1011.4 |
| 20260901104549 | 56 | 270 | 4.0 | 10.0 | 0.00 | 0.00 | 0.00 | 84 | 1011.3 |
| 20260901103548 | 56 | 226 | 5.0 | 11.0 | 0.00 | 0.00 | 0.00 | 84 | 1011.1 |
| 20260901103049 | 56 | 264 | 5.0 | 11.0 | 0.00 | 0.00 | 0.00 | 84 | 1011.1 |
| 20260901102547 | 55 | 293 | 3.0 | 9.0 | 0.00 | 0.00 | 0.00 | 84 | 1011.1 |
| 20260901102048 | 55 | 253 | 4.0 | 9.0 | 0.00 | 0.00 | 0.00 | 84 | 1011.1 |
| 20260901101547 | 55 | 243 | 2.0 | 9.0 | 0.00 | 0.00 | 0.00 | 85 | 1011.1 |
| 20260901101047 | 55 | 257 | 3.0 | 8.0 | 0.00 | 0.00 | 0.00 | 85 | 1011.0 |
| 20260901100546 | 55 | 225 | 4.0 | 13.0 | 0.00 | 0.00 | 0.00 | 85 | 1010.9 |
| 20260901100044 | 55 | 266 | 3.0 | 13.0 | 0.00 | 0.00 | 0.00 | 85 | 1010.8 |
| 20260901095544 | 55 | 279 | 2.0 | 10.0 | 0.00 | 0.00 | 0.00 | 85 | 1010.8 |
| 20260901095043 | 55 | 265 | 3.0 | 10.0 | 0.00 | 0.00 | 0.00 | 85 | 1010.7 |
| 20260901094544 | 55 | 234 | 3.0 | 13.0 | 0.00 | 0.00 | 0.00 | 86 | 1010.7 |
| 20260901093541 | 55 | 230 | 4.0 | 9.0 | 0.00 | 0.00 | 0.00 | 86 | 1010.5 |
| 20260901093041 | 55 | 236 | 3.0 | 8.0 | 0.00 | 0.00 | 0.00 | 86 | 1010.4 |
| 20260901092543 | 55 | 268 | 2.0 | 8.0 | 0.00 | 0.00 | 0.00 | 86 | 1010.3 |
| 20260901092039 | 54 | 259 | 3.0 | 9.0 | 0.00 | 0.00 | 0.00 | 87 | 1010.3 |
| 20260901091538 | 54 | 234 | 2.0 | 8.0 | 0.00 | 0.00 | 0.00 | 87 | 1010.3 |
| 20260901091041 | 54 | 268 | 3.0 | 10.0 | 0.00 | 0.00 | 0.00 | 87 | 1010.2 |
| 20260901090537 | 54 | 253 | 5.0 | 10.0 | 0.00 | 0.00 | 0.00 | 88 | 1010.0 |
| 20260901090036 | 54 | 255 | 2.0 | 11.0 | 0.00 | 0.00 | 0.00 | 88 | 1010.0 |
| 20260901085535 | 53 | 235 | 5.0 | 11.0 | 0.00 | 0.00 | 0.00 | 88 | 1010.0 |
| 20260901085035 | 53 | 249 | 0.0 | 7.0 | 0.00 | 0.00 | 0.00 | 88 | 1009.9 |
| 20260901084538 | 53 | 221 | 2.0 | 7.0 | 0.00 | 0.00 | 0.00 | 88 | 1009.8 |
| 20260901083535 | 53 | 237 | 1.0 | 6.0 | 0.00 | 0.00 | 0.00 | 88 | 1009.6 |
| 20260901083034 | 53 | 234 | 3.0 | 6.0 | 0.00 | 0.00 | 0.00 | 88 | 1009.6 |
| 20260901082532 | 53 | 243 | 2.0 | 6.0 | 0.00 | 0.00 | 0.00 | 88 | 1009.6 |
| 20260901082030 | 53 | 278 | 2.0 | 5.0 | 0.00 | 0.00 | 0.00 | 87 | 1009.5 |
| 20260901081531 | 53 | 230 | 1.0 | 6.0 | 0.00 | 0.00 | 0.00 | 87 | 1009.5 |
| 20260901081030 | 53 | 253 | 2.0 | 8.0 | 0.00 | 0.00 | 0.00 | 87 | 1009.3 |
| 20260901080530 | 53 | 233 | 3.0 | 8.0 | 0.00 | 0.00 | 0.00 | 87 | 1009.2 |
| 20260901080028 | 53 | 226 | 2.0 | 5.0 | 0.00 | 0.00 | 0.00 | 87 | 1009.2 |
| 20260901075529 | 53 | 208 | 1.0 | 5.0 | 0.00 | 0.00 | 0.00 | 87 | 1009.1 |
| 20260901075028 | 53 | 220 | 2.0 | 6.0 | 0.00 | 0.00 | 0.00 | 87 | 1009.1 |
| 20260901074528 | 53 | 246 | 0.0 | 5.0 | 0.00 | 0.00 | 0.00 | 87 | 1009.1 |
| 20260901073526 | 53 | 228 | 1.0 | 5.0 | 0.00 | 0.00 | 0.00 | 86 | 1009.1 |
| 20260901073025 | 53 | 237 | 1.0 | 4.0 | 0.00 | 0.00 | 0.00 | 86 | 1009.1 |
| 20260901072528 | 53 | 257 | 0.0 | 4.0 | 0.00 | 0.00 | 0.00 | 86 | 1009.1 |
| 20260901072024 | 54 | 238 | 0.0 | 4.0 | 0.00 | 0.00 | 0.00 | 85 | 1009.0 |
| 20260901071524 | 54 | 191 | 0.0 | 6.0 | 0.00 | 0.00 | 0.00 | 85 | 1009.0 |
| 20260901071022 | 54 | 224 | 0.0 | 6.0 | 0.00 | 0.00 | 0.00 | 85 | 1009.0 |
| 20260901070521 | 54 | 236 | 1.0 | 5.0 | 0.00 | 0.00 | 0.00 | 84 | 1008.9 |
| 20260901070025 | 54 | 219 | 1.0 | 7.0 | 0.00 | 0.00 | 0.00 | 84 | 1008.9 |
| 20260901065519 | 55 | 218 | 1.0 | 7.0 | 0.00 | 0.00 | 0.00 | 84 | 1008.7 |
| 20260901065020 | 55 | 242 | 1.0 | 6.0 | 0.00 | 0.00 | 0.00 | 83 | 1008.6 |
| 20260901064524 | 55 | 256 | 2.0 | 7.0 | 0.00 | 0.00 | 0.00 | 83 | 1008.5 |
| 20260901063514 | 56 | 280 | 3.0 | 8.0 | 0.00 | 0.00 | 0.00 | 82 | 1008.4 |
| 20260901063014 | 56 | 257 | 3.0 | 12.0 | 0.00 | 0.00 | 0.00 | 82 | 1008.3 |
| 20260901062512 | 56 | 255 | 3.0 | 12.0 | 0.00 | 0.00 | 0.00 | 82 | 1008.3 |
| 20260901062015 | 56 | 257 | 4.0 | 8.0 | 0.00 | 0.00 | 0.00 | 82 | 1008.3 |
| 20260901061511 | 56 | 241 | 3.0 | 7.0 | 0.00 | 0.00 | 0.00 | 82 | 1008.3 |
| 20260901061009 | 56 | 239 | 3.0 | 7.0 | 0.00 | 0.00 | 0.00 | 81 | 1008.3 |
| 20260901060509 | 56 | 218 | 2.0 | 10.0 | 0.00 | 0.00 | 0.00 | 82 | 1008.3 |
| 20260901060007 | 56 | 261 | 2.0 | 10.0 | 0.00 | 0.00 | 0.00 | 82 | 1008.3 |
| 20260901055507 | 57 | 226 | 4.0 | 9.0 | 0.00 | 0.00 | 0.00 | 82 | 1008.2 |
| 20260901055008 | 57 | 251 | 2.0 | 8.0 | 0.00 | 0.00 | 0.00 | 82 | 1008.2 |
| 20260901054505 | 57 | 278 | 3.0 | 8.0 | 0.00 | 0.00 | 0.00 | 82 | 1008.2 |
| 20260901053506 | 57 | 259 | 1.0 | 5.0 | 0.00 | 0.00 | 0.00 | 81 | 1008.0 |
| 20260901053004 | 57 | 249 | 2.0 | 6.0 | 0.00 | 0.00 | 0.00 | 81 | 1007.9 |
| 20260901052503 | 57 | 289 | 2.0 | 6.0 | 0.00 | 0.00 | 0.00 | 81 | 1007.9 |
| 20260901052002 | 57 | 264 | 1.0 | 7.0 | 0.00 | 0.00 | 0.00 | 81 | 1007.9 |